www.pogodaiklimat.ru

Погода и климат >> Архив погоды >> Россия >> Якутия >> Черский


ПОГОДА в Черском

  • Прогноз погоды в Черском
  • Монитор погоды в Черском

АРХИВ ПОГОДЫ в Черском

Время (UTC), дата Ветер
(напр.,м/с)
 
Видим.   Явления Облачность Т
(С)
Тd
(С)
f
(%)
Тe
(С)
Тes
(С)
Комфортность P
(гПа)
Po
(гПа)
Тmin
(С)
Tmax
(С)
R
(мм)
R24
(мм)
S
(см)
21 16.07 СЗ 3 20 км {морось} 9/8 360 м
[Sc Ac As]
+6.4 +4.1 85 +3 +4 1007.6 1004.5 +5.2 0.8
00 17.07 СЗ 3 20 км {ливн. осадки} 9/8 930 м
[Cb cap Ac As]
+8.4 +5.5 82 +6 +7 1007.4 1004.3
03 17.07 штиль 0 20 км 8/6 1000 м
[Cb cap Ac As]
+9.9 +4.3 68 +9 +13 1006.9 1003.8
06 17.07 СЗ 3 20 км {ливн. осадки} 8/6 1500 м
[Cb cap Ac As]
+11.2 +3.8 60 +10 +11 1006.1 1003.1
09 17.07 СЗ 1 20 км 8/6 1500 м
[Cb cap Ac As]
+10.5 +2.7 58 +10 +11 1005.7 1002.7 +11.2 0.0
12 17.07 С 3 20 км 10/9 1000 м
[Sc Ac As]
+8.9 +6.1 83 +6 +6 1005.7 1002.7
15 17.07 СВ 2 20 км слаб. дождь 9/8 1000 м
[Sc Ac As]
+6.0 +6.0 100 +3 +3 1006.0 1002.9
18 17.07 С 3 20 км {дождь} 9/9 1000 м
[Sc]
+7.4 +5.1 85 +5 +5 1006.3 1003.2
21 17.07 С 4 20 км 8/8 300 м
[Sc]
+7.1 +4.3 82 +4 +4 1007.2 1004.1 +5.9 0.3
00 18.07 С 3 20 км 8/8 900 м
[Sc]
+7.9 +1.3 63 +5 +7 1008.6 1005.5
03 18.07 С 3 20 км 9/9 900 м
[Sc]
+8.9 +1.9 61 +7 +7 1009.1 1006.0
06 18.07 С 3 20 км 8/8 900 м
[Sc]
+8.8 +2.7 66 +7 +7 1009.9 1006.8
09 18.07 С 3 20 км 8/8 600 м
[Sc]
+8.5 +3.0 68 +6 +6 1010.8 1007.7 +9.3
12 18.07 СВ 2 20 км 8/8 600 м
[Sc]
+5.3 +0.1 69 +3 +3 1012.1 1009.0
15 18.07 СВ 3 20 км 6/6 600 м
[Sc]
+2.5 -0.2 82 -2 -2 1013.2 1010.0
18 18.07 СВ 2 20 км 6/6 600 м
[Sc]
+3.7 +1.1 83 +1 +1 1013.7 1010.6
21 18.07 С 3 20 км 4/4 600 м
[Cu hum]
+6.2 +1.5 72 +3 +6 1013.9 1010.8 +2.5
00 19.07 С 3 20 км 3/0
[Ci fib]
+9.5 +3.0 64 +7 +15 1013.9 1010.8
03 19.07 С 4 20 км 4/0
[Ci fib]
+11.2 +3.8 60 +9 +15 1013.1 1010.1
06 19.07 С 4
{10}
20 км 8/0
[Ci fib]
+10.4 +3.8 64 +8 +10 1012.5 1009.5
09 19.07 С 6 20 км 8/0
[Ac As]
+8.0 +3.0 71 +4 +4 1012.6 1009.5 +11.6
12 19.07 С 5-10
{10}
20 км 10/0
[Ac As Ci fib]
+7.6 +4.1 78 +4 +4 1013.2 1010.1
15 19.07 С 5-10
{10}
20 км 10/8 400 м
[Sc Ac As]
+6.3 +4.0 85 +2 +2 1013.7 1010.6
18 19.07 СЗ 3 20 км 10/10 360 м
[Sc]
+6.8 +4.5 85 +4 +4 1014.2 1011.1
21 19.07 С 3 20 км слаб. морось 10/10 270 м
[St]
+7.0 +5.0 87 +4 +4 1014.8 1011.7 +6.1 0.0
00 20.07 СЗ 3 20 км {морось} 10/8 360 м
[Sc As trans]
+7.2 +4.5 83 +4 +5 1015.4 1012.3
03 20.07 С 3 20 км 10/9 800 м
[Sc As trans]
+7.1 +3.0 75 +4 +5 1015.6 1012.5
06 20.07 СЗ 3 20 км {ливн. осадки} 8/4 660 м
[Cb cap Ac trans Ci fib]
+8.2 +2.3 66 +6 +7 1015.1 1012.0
09 20.07 С 3 20 км 6/4 600 м
[Cb cap Ci fib]
+7.2 +1.5 67 +5 +5 1014.8 1011.7 +8.9 0.0
12 20.07 СВ 1 20 км 6/6 600 м
[Cu med, cong]
+3.9 +3.4 97 +2 +2 1014.2 1011.1
15 20.07 СВ 2 20 км 3/0
[Ac trans]
+2.6 +1.8 94 -1 -1 1013.3 1010.2
18 20.07 ЮВ 1 20 км 4/0
[Ac trans]
+4.6 +1.8 82 +3 +4 1011.7 1008.6
21 20.07 ЮЗ 2 20 км 8/4 600 м
[Sc Ci fib]
+7.6 +2.5 70 +6 +8 1010.5 1007.4 +1.3
00 21.07 Ю 2 20 км 10/10 840 м
[Sc]
+8.9 +3.0 66 +7 +7 1008.6 1005.5
03 21.07 ЮЗ 3 20 км 10/10 1080 м
[Sc]
+10.2 +3.8 64 +8 +8 1006.4 1003.3
06 21.07 З 3 20 км 9/8 1000 м
[Sc Ac trans]
+11.4 +4.3 62 +10 +10 1004.6 1001.6
09 21.07 Ю 2 20 км 10/10 1500 м
[Sc]
+10.4 +6.1 75 +9 +9 1003.5 1000.5 +11.6
12 21.07 ЮВ 3 20 км 10/0
[Ac As]
+8.4 +4.3 75 +6 +6 1002.7 999.7
15 21.07 ЮВ 2 20 км 8/0
[Ac As]
+7.3 +3.2 75 +5 +5 1002.2 999.1
18 21.07 С 4 20 км 9/9 180 м
[St]
+5.7 +4.5 92 +2 +2 1002.6 999.5
21 21.07 С 5-10
{11}
20 км слаб. дождь 10/10 210 м
[St]
+4.4 +3.2 92 -1 -1 1003.8 1000.7 0.0
00 22.07 СВ 6
{13}
10 км слаб. дождь 10/8 270 м
[St As op]
+3.8 +2.8 93 -2 -2 1004.8 1001.7
03 22.07 С 8-12
{14}
20 км слаб. дождь 10/8 270 м
[St As op]
+4.0 +3.3 95 -2 -2 1005.8 1002.7
06 22.07 С 5-10
{13}
10 км дымка {дождь} 10/10 210 м
[St]
+4.6 +4.1 97 -0 -0 1007.1 1004.0
09 22.07 СВ 3 20 км 10/4 600 м
[Sc As op]
+5.5 +4.3 92 +2 +2 1008.1 1005.0 +5.5 3
12 22.07 С 4
{10}
20 км 10/8 420 м
[Sc Ac und]
+5.6 +4.0 89 +2 +2 1009.1 1006.0
15 22.07 С 4
{10}
10 км слаб. дождь 10/9 270 м
[St Ac und]
+4.9 +4.2 95 +1 +1 1010.5 1007.4
18 22.07 С 4 10 км слаб. дождь 10/9 270 м
[St Ac und]
+4.4 +3.7 95 -0 -0 1010.9 1007.8
21 22.07 10 км слаб. дождь н/о +4.4 +3.2 92 1011.5 1008.4 +4.2 3
00 23.07 СЗ 4 10 км слаб. дождь 10/9 270 м
[St Ac As]
+5.2 +3.8 91 +1 +1 1012.0 1008.9
03 23.07 СЗ 3 10 км слаб. морось {дождь} 10/10 400 м
[Sc]
+4.6 +2.9 89 +1 +1 1012.1 1009.0
06 23.07 СЗ 3 20 км в посл. час дождь {морось} 10/10 500 м
[Sc]
+4.9 +1.9 81 +1 +1 1012.1 1009.0
09 23.07 СЗ 3 20 км 10/8 1500 м
[Sc Ac As]
+4.4 +1.1 79 +1 +1 1012.5 1009.4 +5.5 0.7
12 23.07 З 2 10 км дымка 9/8 450 м
[Sc Ac As]
+4.0 +2.5 90 +1 +1 1012.4 1009.3
15 23.07 З 3 20 км 9/8 630 м
[Sc Ac As]
+4.2 +2.5 89 0 0 1011.1 1008.0

 

Местоположение метеостанции Черский (Якутия, Россия): широта 68.73 долгота 161.30 высота над уровнем моря 28 м.

В архиве по умолчанию представлена погода в Черском за последнюю неделю. Архивные данные за месяц целиком и за предыдущие месяцы, начиная с января 2011 года, Вы можете получить, выбрав интересующий диапазон дат из раскрывающегося списка и нажав кнопку "Ввод!".


*Определитесь, кто Вы:
робот инопланетянин человек

Внимание! Время в таблицах - всемирное. Для получения местного времени необходимо прибавить поправку, которая равна 11 ч.

Смотрите также архив погоды в соседних городах и на ближайших метеорологических станциях:

Погода в Анюйске (Чукотка, Россия) (43 км)
Погода в Константиновской (Чукотка, Россия) (65 км)
Погода в Бухте Амбарчик (Чукотка, Россия) (107 км)
Погода в Колымской (Якутия, Россия) (109 км)
Погода в Островном (Чукотка, Россия) (133 км)
Погода в Билибино (Чукотка, Россия) (222 км)
Погода в Раучуе (Чукотка, Россия) (223 км)
Погода в Баимке (Чукотка, Россия) (274 км)
Погода в Андрюшкино (Якутия, Россия) (276 км)
Погода на Айон Острове (Чукотка, Россия) (291 км)

Пояснения к столбцам:

Ветер - указаны скорость ветра в м/с - средняя за 10 мин, порывы в срок и между сроками (в фигурных скобках) и направление, откуда дует ветер: С - северный, СВ - северо-восточный, В - восточный, ЮВ - юго-восточный, Ю - южный, ЮЗ - юго-западный, З - западный, СЗ - северо-западный.
Видимость - горизонтальная дальность видимости в метрах или километрах. При видимости от 1 до 10 км при отсутствии осадков обычно наблюдается дымка, при ухудшении видимости до 1 км и менее - туман. В сухую погоду видимость может ухудшаться дымом, пылью или мглою.
Явления - указаны атмосферные явления, наблюдавшиеся в срок или в последний час перед сроком; фигурными скобками обозначены явления, наблюдавшиеся между сроками (за 1-3 часа до срока); квадратными скобками обозначены град или гололедные отложения с указанием их диаметра в мм.
Облачность - указаны через наклонную черту общая и нижняя облачность в баллах и высота нижней границы облаков в метрах; квадратными скобками обозначены формы облаков: Ci - перистые, Cs - перисто-слоистые, Cc - перисто-кучевые, Ac - высококучевые, As - высокослоистые, Sc - слоисто-кучевые, Ns - слоисто-дождевые, Cu - кучевые, Cb - кучево-дождевые. Подробнее классификацию облаков см. в Атласе облаков (PDF).
T - Температура воздуха - температура, измеренная на высоте 2 м над землей.
Td - Температура точки росы - температура, при понижении до которой содержащийся в воздухе водяной пар достигнет насыщения.
f - Относительная влажность воздуха - влажноcть воздуха, измеренная на высоте 2 м над землей.
Te - Эффективная температура - температура, которую ощущает одетый по сезону человек в тени. Характеристика душности погоды. При расчете учитывается влияние влажности воздуха и скорости ветра на теплоощущения человека.
Tes - Эффективная температура на солнце - температура, которую ощущает человек, с поправкой на солнечный нагрев. Характеристика знойности погоды. Зависит от высоты солнца над горизонтом, облачности и скорости ветра. Ночью, в пасмурную погоду, а также при ветре 12 м/с и более поправка равна нулю.
P - Атмосферное давление - приведенное к уровню моря атмосферное давление.
Po - Атмосферное давление - измеренное на уровне метеостанции атмосферное давление.
Tmin - Минимальная температура - минимум температуры воздуха на высоте 2 м над землей.
Tmax - Максимальная температура - максимум температуры воздуха на высоте 2 м над землей.
R - Количество осадков - Количество выпавших осадков за период времени, мм. При наведении курсора мыши на число - период времени, за который выпало указанное количество осадков.
R24 - Количество осадков - Количество выпавших осадков за 24 часа, мм.
S - Снежный покров - Высота снежного покрова, см. При наведении курсора мыши на число - состояние снежного покрова и степень покрытия местности в баллах.